GW5948 Weather Reports


time (UTC)temp
C
wind
direction
speed
KPH
gust
KPH
rain 1hr
cm
rain 24hr
cm
rain mn
cm
humidity
%
barometer
mb
20260503225520 11 173 6.4 8.0 0.00 0.00 0.00 47 1015.1
20260503224521 11 173 4.8 6.4 0.00 0.00 0.00 47 1015.2
20260503223520 11 203 4.8 6.4 0.00 0.00 0.00 47 1015.2
20260503222520 11 170 3.2 4.8 0.00 0.00 0.00 48 1015.4
20260503221542 11 173 4.8 6.4 0.00 0.00 0.00 47 1015.3
20260503220521 11 182 3.2 8.0 0.00 0.00 0.00 46 1015.4
20260503215518 11 178 3.2 4.8 0.00 0.00 0.00 48 1015.4
20260503214520 11 170 3.2 6.4 0.00 0.00 0.00 47 1015.4
20260503213519 11 175 4.8 8.0 0.00 0.00 0.00 45 1015.6
20260503212520 11 172 4.8 6.4 0.00 0.00 0.00 45 1015.6
20260503211519 11 172 3.2 3.2 0.00 0.00 0.00 46 1015.6
20260503210540 11 123 1.6 3.2 0.00 0.00 0.00 49 1015.7
20260503205520 10 135 3.2 4.8 0.00 0.00 0.00 50 1015.8
20260503204519 10 152 1.6 3.2 0.00 0.00 0.00 52 1015.8
20260503203519 11 147 1.6 3.2 0.00 0.00 0.00 48 1016.0
20260503202520 11 108 6.4 6.4 0.00 0.00 0.00 47 1016.0
20260503201520 11 116 3.2 3.2 0.00 0.00 0.00 47 1016.1
20260503200519 11 136 3.2 4.8 0.00 0.00 0.00 47 1016.2
20260503195519 11 123 3.2 4.8 0.00 0.00 0.00 48 1016.2
20260503194518 11 151 3.2 4.8 0.00 0.00 0.00 48 1016.2
20260503193520 11 147 1.6 3.2 0.00 0.00 0.00 49 1016.3
20260503192519 11 155 1.6 4.8 0.00 0.00 0.00 47 1016.3
20260503191518 12 155 4.8 6.4 0.00 0.00 0.00 46 1016.2
20260503190520 12 158 4.8 6.4 0.00 0.00 0.00 45 1016.3
20260503185519 12 163 3.2 4.8 0.00 0.00 0.00 46 1016.2
20260503184521 12 168 4.8 6.4 0.00 0.00 0.00 46 1016.3
20260503183519 12 158 4.8 8.0 0.00 0.00 0.00 45 1016.2
20260503182519 12 156 3.2 4.8 0.00 0.00 0.00 45 1016.2
20260503181519 12 159 4.8 6.4 0.00 0.00 0.00 45 1016.2
20260503180518 12 143 3.2 4.8 0.00 0.00 0.00 46 1016.2
20260503175519 13 154 1.6 3.2 0.00 0.00 0.00 45 1016.3
20260503174519 13 144 4.8 4.8 0.00 0.00 0.00 45 1016.5
20260503173520 13 122 3.2 3.2 0.00 0.00 0.00 44 1016.3
20260503172520 13 165 3.2 4.8 0.00 0.00 0.00 43 1016.3
20260503171519 14 173 1.6 4.8 0.00 0.00 0.00 42 1016.4
20260503170519 14 190 1.6 3.2 0.00 0.00 0.00 42 1016.5
20260503150540 15 284 8.0 12.9 0.00 0.00 0.00 36 1017.2
20260503130519 16 228 3.2 6.4 0.00 0.00 0.00 32 1018.5
20260503110517 16 318 11.3 20.9 0.00 0.00 0.00 32 1020.0
20260503081518 13 298 11.3 17.7 0.00 0.00 0.00 32 1021.6
20260503080517 13 312 6.4 12.9 0.00 0.00 0.00 33 1021.6
20260503072537 12 139 4.8 9.7 0.00 0.00 0.00 42 1021.7
20260503071517 12 192 8.0 12.9 0.00 0.00 0.00 43 1021.8
20260503070518 12 160 6.4 14.5 0.00 0.00 0.00 46 1021.8
20260503054518 9 165 4.8 6.4 0.00 0.00 0.00 55 1021.6
20260503053538 8 167 4.8 6.4 0.00 0.00 0.00 56 1021.6
20260503052539 8 161 4.8 6.4 0.00 0.00 0.00 55 1021.6
20260503051517 8 162 4.8 6.4 0.00 0.00 0.00 55 1021.6
20260503050517 8 152 1.6 4.8 0.00 0.00 0.00 55 1021.5
20260503045517 8 38 3.2 6.4 0.00 0.00 0.00 56 1021.5
20260503044518 7 147 1.6 6.4 0.00 0.00 0.00 57 1021.4
20260503043517 6 96 1.6 6.4 0.00 0.00 0.00 60 1021.4
20260503042517 6 144 1.6 8.0 0.00 0.00 0.00 61 1021.4
20260503041517 5 147 4.8 6.4 0.00 0.00 0.00 60 1021.4
20260503040516 5 137 3.2 6.4 0.00 0.00 0.00 62 1021.3
20260503035517 5 102 3.2 8.0 0.00 0.00 0.00 61 1021.2
20260503034517 4 39 3.2 8.0 0.00 0.00 0.00 63 1021.1
20260503033518 3 114 3.2 6.4 0.00 0.00 0.00 67 1021.1
20260503032538 3 78 3.2 9.7 0.00 0.00 0.00 67 1021.1
20260503031537 2 167 1.6 4.8 0.00 0.00 0.00 69 1021.0
20260503030516 2 129 3.2 4.8 0.00 0.00 0.00 69 1020.9
20260503025517 2 52 3.2 6.4 0.00 0.00 0.00 68 1021.0
20260503024517 3 167 1.6 4.8 0.00 0.00 0.00 64 1020.9
20260503023517 3 149 4.8 8.0 0.00 0.00 0.00 63 1020.9
20260503022537 3 11 3.2 9.7 0.00 0.00 0.00 62 1020.8
20260503021518 3 49 3.2 4.8 0.00 0.00 0.00 64 1020.9
20260503020517 3 148 3.2 6.4 0.00 0.00 0.00 62 1020.9
20260503015519 3 112 3.2 6.4 0.00 0.00 0.00 62 1020.9
20260503014516 4 135 3.2 6.4 0.00 0.00 0.00 60 1020.8
20260503013537 5 131 3.2 8.0 0.00 0.00 0.00 56 1020.8
20260503012537 5 49 4.8 9.7 0.00 0.00 0.00 54 1020.9
20260503011557 5 69 3.2 8.0 0.00 0.00 0.00 54 1020.8
20260503010537 5 10 1.6 6.4 0.00 0.00 0.00 55 1020.9
20260503005517 5 8 1.6 3.2 0.00 0.00 0.00 56 1021.0
20260503004518 5 11 3.2 4.8 0.00 0.00 0.00 57 1020.9
20260503003516 5 62 1.6 3.2 0.00 0.00 0.00 57 1021.0
20260503002537 6 165 0.0 3.2 0.00 0.00 0.00 56 1021.0
20260503001517 6 147 3.2 4.8 0.00 0.00 0.00 53 1021.0
20260503000517 6 268 0.0 3.2 0.00 0.00 0.00 53 1021.0
20260502235538 6 0.0 0.0 0.00 0.00 0.00 53 1021.0
20260502234518 6 0.0 1.6 0.00 0.00 0.00 54 1021.1
20260502233537 5 258 0.0 3.2 0.00 0.00 0.00 55 1021.1
20260502232518 5 0.0 1.6 0.00 0.00 0.00 56 1021.0
20260502231517 5 126 0.0 3.2 0.00 0.00 0.00 56 1021.2
20260502230516 6 39 0.0 1.6 0.00 0.00 0.00 55 1021.2